Left ArrowRight Arrow

31.31129, -92.44514

Hourly Observations for June 24, 2024

Temp ( °F °C ) Dew Point ( °F °C ) Humidity (%) Winds ( mph kmh ) Pressure ( in mb ) Visibility ( mi km ) Precip ( " mm )
12:53 am 00:53 Clear 81 27.2 76 24.4 85 85 WSW 6 9 29.94 1014 9 14 0.00 0.00
1:53 am 01:53 Clear 80 26.7 76 24.4 87 87 WSW 3 6 29.94 1014 8 13 0.00 0.00
2:53 am 02:53 Clear 79 26.1 75 23.9 88 88 Calm 29.93 1014 9 14 0.00 0.00
3:53 am 03:53 Clear 78 25.6 76 24.4 93 93 Calm 29.93 1014 9 14 0.00 0.00
4:53 am 04:53 Clear 77 25 75 23.9 94 94 Calm 29.93 1014 8 13 0.00 0.00
5:53 am 05:53 Clear 76 24.4 74 23.3 94 94 Calm 29.94 1014 7 11 0.00 0.00
6:53 am 06:53 Sunny with Mist and Fog 77 25 75 23.9 94 94 Calm 29.96 1015 6 10 0.00 0.00
7:53 am 07:53 Sunny with Mist and Fog 80 26.7 77 25 90 90 VRB 3 6 29.98 1015 6 10 0.00 0.00
8:53 am 08:53 Sunny 84 28.9 77 25 80 80 NW 5 7 29.98 1015 8 13 0.00 0.00
9:53 am 09:53 Sunny 87 30.6 77 25 72 72 Calm 29.98 1015 8 13 0.00 0.00
10:53 am 10:53 Sunny 90 32.2 76 24.4 64 64 Calm 29.99 1016 9 14 0.00 0.00
11:53 am 11:53 Mostly Sunny 94 34.4 74 23.3 53 53 VRB 3 6 29.99 1016 8 13 0.00 0.00
12:53 pm 12:53 Mostly Sunny 95 35 73 22.8 49 49 SE 7 11 29.98 1015 9 14 0.00 0.00
1:53 pm 13:53 Mostly Cloudy 96 35.6 72 22.2 46 46 SSW 5 7 29.96 1014 10 16 0.00 0.00
2:53 pm 14:53 Mostly Cloudy 98 36.7 71 21.7 42 42 Calm 29.94 1014 9 14 0.00 0.00
3:53 pm 15:53 Sunny 97 36.1 72 22.2 45 45 VRB 3 6 29.92 1013 8 13 0.00 0.00
4:53 pm 16:53 Partly Cloudy 97 36.1 71 21.7 43 43 VRB 6 9 29.90 1013 9 14 0.00 0.00
5:53 pm 17:53 Mostly Sunny 96 35.6 71 21.7 45 45 S 3 6 29.89 1012 8 13 0.00 0.00
6:53 pm 18:53 Cloudy 90 32.2 73 22.8 58 58 E 7 11 29.90 1013 8 13 0.00 0.00
7:53 pm 19:53 Sunny 87 30.6 74 23.3 65 65 E 5 7 29.90 1013 9 14 0.00 0.00
8:53 pm 20:53 Clear 86 30 73 22.8 65 65 ESE 7 11 29.91 1013 9 14 0.00 0.00
9:53 pm 21:53 Clear 83 28.3 74 23.3 74 74 ESE 6 9 29.91 1013 9 14 0.00 0.00
10:53 pm 22:53 Clear 82 27.8 74 23.3 77 77 S 3 6 29.93 1013 9 14 0.00 0.00
11:53 pm 23:53 Clear 81 27.2 75 23.9 82 82 SSE 3 6 29.93 1014 9 14 0.00 0.00

Powered by Vaisala Xweather